• In Netherlands
  • List of Countries
  • For 7 days
  • Water Temperature
  • Satellite Maps
  • Weather Map
  • Weather Widgets
  • user-avatar
    Login

    Hourly Weather Parakou

    Today, 20 August, Sunday

    Time Temperature Precipitation Wind Pressure Humidity
    00:00 +23°C° 0 mm 1 mps 728 mmHg 93%
    01:00 +23°C° 0 mm 1 mps 728 mmHg 94%
    02:00 +23°C° 0 mm 1 mps 728 mmHg 95%
    03:00 +22°C° 0 mm 1 mps 728 mmHg 95%
    04:00 +22°C° 0 mm 1 mps 728 mmHg 96%
    05:00 +22°C° 0 mm 1 mps 729 mmHg 96%
    06:00 +22°C° 0 mm 1 mps 729 mmHg 97%
    07:00 +24°C° 0 mm 1 mps 729 mmHg 89%
    08:00 +25°C° 0 mm 2 mps 730 mmHg 82%
    09:00 +27°C° 0 mm 2 mps 730 mmHg 75%
    10:00 +28°C° 0.1 mm 2 mps 730 mmHg 71%
    11:00 +29°C° 0.1 mm 2 mps 730 mmHg 68%
    12:00 +31°C° 0.1 mm 2 mps 729 mmHg 65%
    13:00 +31°C° 0.4 mm 2 mps 729 mmHg 65%
    14:00 +31°C° 0.4 mm 2 mps 728 mmHg 65%
    15:00 +31°C° 0.4 mm 2 mps 727 mmHg 65%
    16:00 +30°C° 0.6 mm 1 mps 727 mmHg 72%
    17:00 +28°C° 0.6 mm 1 mps 727 mmHg 79%
    18:00 +27°C° 0.6 mm 1 mps 727 mmHg 86%
    19:00 +26°C° 0.4 mm 1 mps 728 mmHg 88%
    20:00 +26°C° 0.4 mm 1 mps 728 mmHg 89%
    21:00 +25°C° 0.4 mm 1 mps 729 mmHg 91%
    22:00 +25°C° 0.5 mm 1 mps 729 mmHg 92%
    23:00 +24°C° 0.5 mm 1 mps 729 mmHg 92%

    Tomorrow, 21 August, Monday

    Time Temperature Precipitation Wind Pressure Humidity
    00:00 +24°C° 0.5 mm 1 mps 729 mmHg 93%
    01:00 +24°C° 0.2 mm 1 mps 729 mmHg 94%
    02:00 +24°C° 0.2 mm 2 mps 728 mmHg 95%
    03:00 +24°C° 0.2 mm 2 mps 728 mmHg 96%
    04:00 +23°C° 0.1 mm 2 mps 728 mmHg 97%
    05:00 +23°C° 0.1 mm 2 mps 728 mmHg 97%
    06:00 +23°C° 0.1 mm 2 mps 728 mmHg 98%
    07:00 +24°C° 0.1 mm 2 mps 729 mmHg 94%
    08:00 +26°C° 0.1 mm 2 mps 729 mmHg 90%
    09:00 +27°C° 0.1 mm 2 mps 729 mmHg 86%
    10:00 +28°C° 0.5 mm 2 mps 729 mmHg 81%
    11:00 +29°C° 0.5 mm 2 mps 729 mmHg 76%
    12:00 +31°C° 0.5 mm 2 mps 728 mmHg 71%
    13:00 +30°C° 1.1 mm 2 mps 728 mmHg 72%
    14:00 +30°C° 1.1 mm 2 mps 727 mmHg 73%
    15:00 +30°C° 1.1 mm 2 mps 726 mmHg 75%
    16:00 +29°C° 1.3 mm 2 mps 727 mmHg 80%
    17:00 +27°C° 1.3 mm 2 mps 727 mmHg 86%
    18:00 +26°C° 1.3 mm 1 mps 727 mmHg 92%
    19:00 +26°C° 0.4 mm 2 mps 728 mmHg 93%
    20:00 +25°C° 0.4 mm 2 mps 728 mmHg 94%
    21:00 +25°C° 0.4 mm 2 mps 729 mmHg 95%
    22:00 +25°C° 0 mm 3 mps 729 mmHg 95%
    23:00 +24°C° 0 mm 3 mps 729 mmHg 96%

    Day after tomorrow, 22 August, Tuesday

    Time Temperature Precipitation Wind Pressure Humidity
    00:00 +24°C° 0 mm 3 mps 728 mmHg 96%
    01:00 +24°C° 0 mm 3 mps 728 mmHg 96%
    02:00 +22°C° 0 mm 3 mps 728 mmHg 95%
    03:00 +22°C° 0 mm 3 mps 727 mmHg 95%
    04:00 +22°C° 0 mm 3 mps 728 mmHg 95%
    05:00 +22°C° 0 mm 3 mps 728 mmHg 95%
    06:00 +22°C° 0 mm 3 mps 728 mmHg 95%
    07:00 +22°C° 0.2 mm 3 mps 729 mmHg 94%
    08:00 +24°C° 0.2 mm 3 mps 730 mmHg 93%
    09:00 +24°C° 0.2 mm 3 mps 730 mmHg 92%
    10:00 +24°C° 0.1 mm 2 mps 730 mmHg 91%
    11:00 +25°C° 0.1 mm 2 mps 729 mmHg 89%
    12:00 +25°C° 0.1 mm 2 mps 729 mmHg 88%
    13:00 +26°C° 0.1 mm 2 mps 728 mmHg 84%
    14:00 +27°C° 0.1 mm 2 mps 727 mmHg 81%
    15:00 +28°C° 0.1 mm 2 mps 726 mmHg 77%
    16:00 +27°C° 0.1 mm 2 mps 726 mmHg 80%
    17:00 +27°C° 0.1 mm 2 mps 726 mmHg 83%
    18:00 +26°C° 0.1 mm 2 mps 727 mmHg 87%
    19:00 +26°C° 0.7 mm 2 mps 727 mmHg 88%
    20:00 +25°C° 0.7 mm 2 mps 728 mmHg 90%
    21:00 +25°C° 0.7 mm 2 mps 728 mmHg 91%
    22:00 +25°C° 0.3 mm 2 mps 728 mmHg 92%
    23:00 +24°C° 0.3 mm 2 mps 728 mmHg 94%

    23 August, Wednesday

    Time Temperature Precipitation Wind Pressure Humidity
    00:00 +24°C° 0.3 mm 2 mps 728 mmHg 95%
    01:00 +24°C° 0.3 mm 2 mps 727 mmHg 95%
    02:00 +23°C° 0.3 mm 2 mps 727 mmHg 96%
    03:00 +23°C° 0.3 mm 2 mps 726 mmHg 96%
    04:00 +23°C° 0 mm 2 mps 727 mmHg 96%
    05:00 +23°C° 0 mm 2 mps 727 mmHg 96%
    06:00 +23°C° 0 mm 2 mps 728 mmHg 96%
    07:00 +24°C° 0 mm 2 mps 728 mmHg 93%
    08:00 +24°C° 0 mm 2 mps 729 mmHg 91%
    09:00 +25°C° 0 mm 2 mps 729 mmHg 88%
    10:00 +26°C° 0.3 mm 2 mps 729 mmHg 83%
    11:00 +28°C° 0.3 mm 2 mps 728 mmHg 78%
    12:00 +29°C° 0.3 mm 2 mps 728 mmHg 73%
    13:00 +29°C° 1 mm 2 mps 727 mmHg 75%
    14:00 +29°C° 1 mm 2 mps 727 mmHg 76%
    15:00 +29°C° 1 mm 2 mps 726 mmHg 77%
    16:00 +28°C° 0.9 mm 2 mps 727 mmHg 82%
    17:00 +27°C° 0.9 mm 2 mps 727 mmHg 87%
    18:00 +26°C° 0.9 mm 1 mps 727 mmHg 91%
    19:00 +25°C° 0.1 mm 1 mps 728 mmHg 93%
    20:00 +25°C° 0.1 mm 1 mps 728 mmHg 94%
    21:00 +24°C° 0.1 mm 1 mps 728 mmHg 96%
    22:00 +24°C° 0 mm 1 mps 728 mmHg 96%
    23:00 +24°C° 0 mm 2 mps 728 mmHg 97%

    24 August, Thursday

    Time Temperature Precipitation Wind Pressure Humidity
    00:00 +24°C° 0 mm 2 mps 728 mmHg 97%
    01:00 +23°C° 0 mm 2 mps 728 mmHg 97%
    02:00 +23°C° 0 mm 1 mps 727 mmHg 98%
    03:00 +23°C° 0 mm 1 mps 727 mmHg 98%
    04:00 +23°C° 0 mm 1 mps 728 mmHg 98%
    05:00 +23°C° 0 mm 1 mps 728 mmHg 98%
    06:00 +23°C° 0 mm 1 mps 728 mmHg 98%
    07:00 +24°C° 0 mm 2 mps 729 mmHg 95%
    08:00 +24°C° 0 mm 2 mps 729 mmHg 92%
    09:00 +25°C° 0 mm 2 mps 730 mmHg 89%
    10:00 +26°C° 0 mm 2 mps 729 mmHg 84%
    11:00 +27°C° 0 mm 2 mps 729 mmHg 79%
    12:00 +29°C° 0 mm 2 mps 728 mmHg 73%
    13:00 +29°C° 0 mm 2 mps 728 mmHg 70%
    14:00 +30°C° 0 mm 2 mps 727 mmHg 67%
    15:00 +31°C° 0 mm 2 mps 727 mmHg 64%
    16:00 +30°C° 0.3 mm 2 mps 727 mmHg 70%
    17:00 +28°C° 0.3 mm 1 mps 727 mmHg 75%
    18:00 +27°C° 0.3 mm 1 mps 728 mmHg 80%
    19:00 +27°C° 0.1 mm 1 mps 728 mmHg 83%
    20:00 +26°C° 0.1 mm 1 mps 729 mmHg 85%
    21:00 +25°C° 0.1 mm 2 mps 729 mmHg 88%
    22:00 +25°C° 0 mm 1 mps 729 mmHg 90%
    23:00 +25°C° 0 mm 1 mps 728 mmHg 92%

    25 August, Friday

    Time Temperature Precipitation Wind Pressure Humidity
    00:00 +24°C° 0 mm 1 mps 728 mmHg 94%
    01:00 +24°C° 0 mm 1 mps 728 mmHg 95%
    02:00 +24°C° 0 mm 1 mps 728 mmHg 95%
    03:00 +24°C° 0 mm 1 mps 728 mmHg 96%
    04:00 +24°C° 1.1 mm 1 mps 728 mmHg 96%
    05:00 +24°C° 1.1 mm 1 mps 728 mmHg 96%
    06:00 +24°C° 1.1 mm 1 mps 729 mmHg 97%
    07:00 +24°C° 0.5 mm 1 mps 729 mmHg 95%
    08:00 +24°C° 0.5 mm 1 mps 729 mmHg 94%
    09:00 +25°C° 0.5 mm 1 mps 730 mmHg 92%
    10:00 +26°C° 0 mm 2 mps 729 mmHg 86%
    11:00 +28°C° 0 mm 2 mps 729 mmHg 79%
    12:00 +29°C° 0 mm 3 mps 728 mmHg 72%
    13:00 +29°C° 0 mm 3 mps 727 mmHg 71%
    14:00 +30°C° 0 mm 2 mps 727 mmHg 69%
    15:00 +30°C° 0 mm 2 mps 726 mmHg 67%
    16:00 +29°C° 0.7 mm 2 mps 726 mmHg 74%
    17:00 +28°C° 0.7 mm 1 mps 726 mmHg 81%
    18:00 +26°C° 0.7 mm 1 mps 727 mmHg 87%
    19:00 +26°C° 0.9 mm 1 mps 727 mmHg 89%
    20:00 +25°C° 0.9 mm 1 mps 727 mmHg 91%
    21:00 +25°C° 0.9 mm 1 mps 728 mmHg 93%
    22:00 +25°C° 3.1 mm 1 mps 728 mmHg 94%
    23:00 +25°C° 3.1 mm 1 mps 728 mmHg 94%
    Show more